When you browse on this site, cookies collect data to enhance your experience and personalize the content and advertising you see.
Visit our Privacy Policy to learn more. By continuing to use the site, you agree to this use of cookies and data.
  • In Austria
  • List of Countries
  • For 7 days
  • Water Temperature
  • Satellite Maps
  • Weather Map
  • News
  • Weather Widgets
  • user-avatar
    Login

    Hourly Weather Gjirokaster

    Today, 17 July, Wednesday

    Time Temperature Precipitation Wind Pressure Humidity
    00:00 +12°C° 0 mm 2 mps 647 mmHg 86%
    01:00 +11°C° 0 mm 3 mps 647 mmHg 86%
    02:00 +12°C° 0 mm 2 mps 647 mmHg 85%
    03:00 +12°C° 0 mm 2 mps 647 mmHg 85%
    04:00 +10°C° 0 mm 2 mps 647 mmHg 85%
    05:00 +12°C° 0 mm 2 mps 647 mmHg 82%
    06:00 +14°C° 0 mm 2 mps 648 mmHg 78%
    07:00 +15°C° 0 mm 2 mps 648 mmHg 75%
    08:00 +16°C° 0 mm 1 mps 649 mmHg 68%
    09:00 +19°C° 0 mm 1 mps 650 mmHg 61%
    10:00 +20°C° 0 mm 1 mps 651 mmHg 54%
    11:00 +21°C° 0.1 mm 1 mps 651 mmHg 52%
    12:00 +20°C° 0.1 mm 2 mps 651 mmHg 51%
    13:00 +21°C° 0.1 mm 2 mps 651 mmHg 50%
    14:00 +20°C° 0.1 mm 2 mps 651 mmHg 52%
    15:00 +20°C° 0.1 mm 2 mps 651 mmHg 55%
    16:00 +19°C° 0.1 mm 2 mps 651 mmHg 57%
    17:00 +18°C° 0 mm 2 mps 650 mmHg 63%
    18:00 +18°C° 0 mm 1 mps 650 mmHg 69%
    19:00 +15°C° 0 mm 1 mps 649 mmHg 75%
    20:00 +15°C° 0 mm 1 mps 649 mmHg 76%
    21:00 +14°C° 0 mm 1 mps 649 mmHg 76%
    22:00 +14°C° 0 mm 1 mps 650 mmHg 77%
    23:00 +13°C° 0 mm 1 mps 650 mmHg 76%

    Tomorrow, 18 July, Thursday

    Time Temperature Precipitation Wind Pressure Humidity
    00:00 +13°C° 0 mm 1 mps 649 mmHg 76%
    01:00 +13°C° 0 mm 1 mps 649 mmHg 75%
    02:00 +13°C° 0 mm 1 mps 649 mmHg 74%
    03:00 +12°C° 0 mm 1 mps 649 mmHg 74%
    04:00 +12°C° 0 mm 1 mps 649 mmHg 73%
    05:00 +14°C° 0 mm 1 mps 650 mmHg 69%
    06:00 +15°C° 0 mm 1 mps 650 mmHg 64%
    07:00 +18°C° 0 mm 1 mps 651 mmHg 60%
    08:00 +19°C° 0 mm 1 mps 651 mmHg 56%
    09:00 +20°C° 0 mm 1 mps 652 mmHg 53%
    10:00 +22°C° 0 mm 1 mps 652 mmHg 49%
    11:00 +22°C° 0 mm 1 mps 652 mmHg 48%
    12:00 +22°C° 0 mm 1 mps 652 mmHg 48%
    13:00 +21°C° 0 mm 2 mps 652 mmHg 47%
    14:00 +21°C° 0.2 mm 2 mps 652 mmHg 49%
    15:00 +20°C° 0.2 mm 2 mps 652 mmHg 52%
    16:00 +20°C° 0.2 mm 2 mps 652 mmHg 55%
    17:00 +20°C° 0.2 mm 1 mps 652 mmHg 61%
    18:00 +18°C° 0.2 mm 1 mps 651 mmHg 67%
    19:00 +16°C° 0.2 mm 1 mps 651 mmHg 73%
    20:00 +15°C° 0.1 mm 1 mps 651 mmHg 74%
    21:00 +15°C° 0.1 mm 1 mps 651 mmHg 76%
    22:00 +14°C° 0.1 mm 1 mps 652 mmHg 77%
    23:00 +14°C° 0 mm 1 mps 652 mmHg 78%

    Day after tomorrow, 19 July, Friday

    Time Temperature Precipitation Wind Pressure Humidity
    00:00 +14°C° 0 mm 1 mps 651 mmHg 79%
    01:00 +12°C° 0 mm 0 mps 651 mmHg 80%
    02:00 +12°C° 0 mm 0 mps 651 mmHg 80%
    03:00 +13°C° 0 mm 1 mps 651 mmHg 80%
    04:00 +13°C° 0 mm 1 mps 651 mmHg 80%
    05:00 +14°C° 0 mm 1 mps 652 mmHg 75%
    06:00 +15°C° 0 mm 0 mps 652 mmHg 70%
    07:00 +16°C° 0 mm 0 mps 653 mmHg 65%
    08:00 +19°C° 0.3 mm 1 mps 653 mmHg 61%
    09:00 +21°C° 0.3 mm 1 mps 654 mmHg 57%
    10:00 +22°C° 0.3 mm 1 mps 654 mmHg 53%
    11:00 +22°C° 0.3 mm 1 mps 654 mmHg 52%
    12:00 +21°C° 0.3 mm 2 mps 654 mmHg 50%
    13:00 +23°C° 0.3 mm 2 mps 654 mmHg 48%
    14:00 +21°C° 0.2 mm 2 mps 654 mmHg 52%
    15:00 +20°C° 0.2 mm 2 mps 654 mmHg 55%
    16:00 +20°C° 0.2 mm 2 mps 653 mmHg 59%
    17:00 +19°C° 0.8 mm 2 mps 653 mmHg 64%
    18:00 +17°C° 0.8 mm 2 mps 653 mmHg 69%
    19:00 +16°C° 0.8 mm 1 mps 653 mmHg 74%
    20:00 +16°C° 0 mm 1 mps 653 mmHg 75%
    21:00 +15°C° 0 mm 1 mps 653 mmHg 76%
    22:00 +15°C° 0 mm 1 mps 653 mmHg 77%
    23:00 +15°C° 0 mm 1 mps 653 mmHg 77%

    20 July, Saturday

    Time Temperature Precipitation Wind Pressure Humidity
    00:00 +14°C° 0 mm 1 mps 653 mmHg 77%
    01:00 +14°C° 0 mm 1 mps 653 mmHg 77%
    02:00 +14°C° 0 mm 1 mps 653 mmHg 77%
    03:00 +14°C° 0 mm 1 mps 653 mmHg 77%
    04:00 +14°C° 0 mm 1 mps 652 mmHg 77%
    05:00 +15°C° 0 mm 1 mps 653 mmHg 73%
    06:00 +16°C° 0 mm 1 mps 654 mmHg 68%
    07:00 +19°C° 0 mm 1 mps 654 mmHg 64%
    08:00 +20°C° 0 mm 1 mps 655 mmHg 58%
    09:00 +22°C° 0 mm 1 mps 655 mmHg 52%
    10:00 +22°C° 0 mm 0 mps 656 mmHg 46%
    11:00 +24°C° 0 mm 1 mps 656 mmHg 44%
    12:00 +24°C° 0 mm 1 mps 656 mmHg 42%
    13:00 +25°C° 0 mm 2 mps 656 mmHg 40%
    14:00 +24°C° 0 mm 2 mps 656 mmHg 43%
    15:00 +24°C° 0 mm 2 mps 656 mmHg 45%
    16:00 +24°C° 0 mm 3 mps 655 mmHg 48%
    17:00 +21°C° 0 mm 2 mps 655 mmHg 53%
    18:00 +20°C° 0 mm 2 mps 655 mmHg 58%
    19:00 +18°C° 0 mm 2 mps 655 mmHg 63%
    20:00 +18°C° 0 mm 2 mps 655 mmHg 63%
    21:00 +18°C° 0 mm 1 mps 655 mmHg 63%
    22:00 +18°C° 0 mm 1 mps 655 mmHg 64%
    23:00 +16°C° 0 mm 1 mps 655 mmHg 64%

    21 July, Sunday

    Time Temperature Precipitation Wind Pressure Humidity
    00:00 +16°C° 0 mm 1 mps 655 mmHg 65%
    01:00 +16°C° 0 mm 1 mps 654 mmHg 65%
    02:00 +16°C° 0 mm 1 mps 654 mmHg 66%
    03:00 +16°C° 0 mm 1 mps 654 mmHg 67%
    04:00 +16°C° 0 mm 1 mps 654 mmHg 67%
    05:00 +18°C° 0 mm 1 mps 654 mmHg 64%
    06:00 +20°C° 0 mm 1 mps 655 mmHg 60%
    07:00 +21°C° 0 mm 1 mps 656 mmHg 56%
    08:00 +23°C° 0 mm 1 mps 656 mmHg 51%
    09:00 +24°C° 0 mm 1 mps 657 mmHg 46%
    10:00 +26°C° 0 mm 1 mps 657 mmHg 40%
    11:00 +26°C° 0 mm 1 mps 657 mmHg 39%
    12:00 +26°C° 0 mm 1 mps 657 mmHg 38%
    13:00 +27°C° 0 mm 2 mps 657 mmHg 37%
    14:00 +26°C° 0 mm 2 mps 657 mmHg 40%
    15:00 +26°C° 0 mm 2 mps 656 mmHg 43%
    16:00 +25°C° 0 mm 3 mps 656 mmHg 46%
    17:00 +24°C° 0 mm 2 mps 656 mmHg 51%
    18:00 +21°C° 0 mm 2 mps 655 mmHg 57%
    19:00 +20°C° 0 mm 2 mps 655 mmHg 63%
    20:00 +19°C° 0 mm 2 mps 655 mmHg 64%
    21:00 +19°C° 0 mm 2 mps 655 mmHg 64%
    22:00 +19°C° 0 mm 1 mps 655 mmHg 65%
    23:00 +19°C° 0 mm 1 mps 655 mmHg 66%

    22 July, Monday

    Time Temperature Precipitation Wind Pressure Humidity
    00:00 +19°C° 0 mm 1 mps 655 mmHg 66%
    01:00 +18°C° 0 mm 1 mps 654 mmHg 67%
    02:00 +18°C° 0 mm 1 mps 654 mmHg 66%
    03:00 +18°C° 0 mm 1 mps 654 mmHg 65%
    04:00 +18°C° 0 mm 1 mps 654 mmHg 64%
    05:00 +19°C° 0 mm 1 mps 654 mmHg 60%
    06:00 +21°C° 0 mm 1 mps 655 mmHg 56%
    07:00 +22°C° 0 mm 1 mps 655 mmHg 52%
    08:00 +24°C° 0 mm 1 mps 656 mmHg 48%
    09:00 +25°C° 0 mm 1 mps 656 mmHg 43%
    10:00 +27°C° 0 mm 1 mps 657 mmHg 39%
    11:00 +27°C° 0 mm 1 mps 656 mmHg 38%
    12:00 +28°C° 0 mm 1 mps 656 mmHg 37%
    13:00 +28°C° 0 mm 2 mps 656 mmHg 36%
    14:00 +27°C° 0 mm 2 mps 656 mmHg 39%
    15:00 +27°C° 0 mm 2 mps 655 mmHg 42%
    16:00 +26°C° 0 mm 3 mps 655 mmHg 45%
    17:00 +25°C° 0 mm 2 mps 654 mmHg 51%
    18:00 +23°C° 0 mm 2 mps 654 mmHg 57%
    19:00 +20°C° 0 mm 2 mps 653 mmHg 64%
    20:00 +20°C° 0 mm 2 mps 653 mmHg 64%
    21:00 +19°C° 0 mm 2 mps 653 mmHg 64%
    22:00 +20°C° 0 mm 1 mps 653 mmHg 64%
    23:00 +20°C° 0 mm 1 mps 653 mmHg 64%
    Show more